Weather History for Montevideo, MN

Change the Weather History Date:

Thursday, October 4, 2012

  Actual Average Record
Temperature  
Mean Temperature 50 °F -  
Max Temperature 64 °F 66 °F 87 °F (1975)
Min Temperature 37 °F 40 °F 24 °F (1968)
Degree Days  
Heating Degree Days 14    
Moisture  
Dew Point 35 °F    
Average Humidity 71    
Maximum Humidity 93    
Minimum Humidity 34    
Precipitation  
Precipitation 0.00 in - - ()
Sea Level Pressure  
Sea Level Pressure 30.07 in    
Wind  
Wind Speed 19 mph (NNW)    
Max Wind Speed 31 mph    
Max Gust Speed 40 mph    
Visibility 10 miles    
Events      
Averages and records for this station are not official NWS values.
T = Trace of Precipitation, MM = Missing Value Source: NWS Daily Summary

Daily Weather History Graph

Daily Weather History Graph

Search for Another Location

Airport:

Trip Planner

Search our weather history database for the weather conditions in past years. The results will help you decide how hot, cold, wet, or windy it might be!

Date:

Astronomy

Oct. 04, 2012 Rise Set
Actual Time 7:25 AM CDT 6:56 PM CDT
Civil Twilight 6:55 AM CDT 7:25 PM CDT
Nautical Twilight 6:21 AM CDT 7:59 PM CDT
Astronomical Twilight 5:47 AM CDT 8:34 PM CDT
Moon 9:21 PM CDT (10/4) 11:55 AM CDT (10/4)
Length of Visible Light 12h 30m
Length of Day
11h 31m
Waning Gibbous, 82% of the Moon is Illuminated
Oct 4
Waning Gibbous
Oct 8
Last Quarter
Oct 15
New
Oct 21
First Quarter
Oct 29
Full

Hourly Weather History & Observations

Time (CDT) Temp. Windchill Dew Point Humidity Pressure Visibility Wind Dir Wind Speed Gust Speed Precip Events Conditions
12:14 AM 64.4 °F - 35.6 °F 34% 29.69 in 10.0 mi SW 15.0 mph 21.9 mph N/A   Clear
12:34 AM 60.8 °F - 39.2 °F 45% 29.71 in 7.0 mi West 17.3 mph 27.6 mph N/A   Clear
12:54 AM 55.4 °F - 39.2 °F 54% 29.72 in 7.0 mi West 16.1 mph 24.2 mph N/A   Clear
1:14 AM 51.8 °F - 41.0 °F 67% 29.73 in 7.0 mi WNW 15.0 mph 21.9 mph N/A   Clear
1:34 AM 48.2 °F - 42.8 °F 82% 29.77 in 10.0 mi NW 23.0 mph 31.1 mph N/A   Clear
1:54 AM 48.2 °F - 42.8 °F 82% 29.79 in 10.0 mi NW 21.9 mph 34.5 mph N/A   Mostly Cloudy
2:14 AM 48.2 °F - 41.0 °F 76% 29.81 in 10.0 mi NW 23.0 mph 31.1 mph N/A   Overcast
2:34 AM 46.4 °F 38.3 °F 39.2 °F 76% 29.83 in 10.0 mi NW 23.0 mph 34.5 mph N/A   Overcast
2:54 AM 46.4 °F 39.0 °F 39.2 °F 76% 29.83 in 10.0 mi NW 19.6 mph 35.7 mph N/A   Overcast
3:14 AM 46.4 °F 39.0 °F 39.2 °F 76% 29.84 in 10.0 mi NW 19.6 mph 34.5 mph N/A   Overcast
3:34 AM 44.6 °F 36.9 °F 39.2 °F 81% 29.86 in 10.0 mi NW 18.4 mph 35.7 mph N/A   Overcast
3:54 AM 44.6 °F 36.1 °F 39.2 °F 81% 29.88 in 10.0 mi NW 21.9 mph 35.7 mph N/A   Overcast
4:14 AM 44.6 °F 35.5 °F 39.2 °F 81% 29.88 in 10.0 mi NW 25.3 mph 31.1 mph N/A   Overcast
4:34 AM 44.6 °F 36.9 °F 39.2 °F 81% 29.90 in 10.0 mi NW 18.4 mph 34.5 mph N/A   Overcast
4:54 AM 44.6 °F 35.9 °F 39.2 °F 81% 29.91 in 10.0 mi NW 23.0 mph 40.3 mph N/A   Overcast
5:14 AM 42.8 °F 34.3 °F 35.6 °F 76% 29.92 in 10.0 mi NW 19.6 mph 33.4 mph N/A   Overcast
5:34 AM 41.0 °F 31.4 °F 35.6 °F 81% 29.93 in 10.0 mi NNW 21.9 mph 32.2 mph N/A   Overcast
5:54 AM 41.0 °F 31.6 °F 35.6 °F 81% 29.94 in 10.0 mi NNW 20.7 mph 31.1 mph N/A   Overcast
6:14 AM 41.0 °F 32.8 °F 35.6 °F 81% 29.96 in 10.0 mi NNW 16.1 mph 25.3 mph N/A   Overcast
6:34 AM 39.2 °F 29.6 °F 33.8 °F 81% 29.96 in 10.0 mi NNW 19.6 mph 27.6 mph N/A   Overcast
6:54 AM 39.2 °F 29.3 °F 33.8 °F 81% 29.98 in 10.0 mi NW 20.7 mph 28.8 mph N/A   Overcast
7:14 AM 39.2 °F 28.5 °F 33.8 °F 81% 29.98 in 10.0 mi NNW 24.2 mph 34.5 mph N/A   Overcast
7:39 AM 39.2 °F 28.5 °F 35.6 °F 87% 30.00 in 10.0 mi NNW 24.2 mph 35.7 mph N/A   Overcast
7:54 AM 39.2 °F 28.5 °F 35.6 °F 87% 30.01 in 7.0 mi NNW 24.2 mph 32.2 mph N/A   Overcast
8:14 AM 37.4 °F 26.6 °F 35.6 °F 93% 30.02 in 7.0 mi NNW 21.9 mph 33.4 mph N/A   Overcast
8:34 AM 39.2 °F 29.6 °F 35.6 °F 87% 30.03 in 10.0 mi NNW 19.6 mph 31.1 mph N/A   Overcast
8:54 AM 39.2 °F 29.3 °F 33.8 °F 81% 30.04 in 10.0 mi NNW 20.7 mph 33.4 mph N/A   Overcast
9:14 AM 39.2 °F 28.5 °F 33.8 °F 81% 30.05 in 10.0 mi NNW 24.2 mph 38.0 mph N/A   Overcast
9:34 AM 39.2 °F 29.6 °F 33.8 °F 81% 30.06 in 10.0 mi NNW 19.6 mph 34.5 mph N/A   Overcast
9:54 AM 39.2 °F 27.8 °F 33.8 °F 81% 30.07 in 10.0 mi North 27.6 mph 33.4 mph N/A   Overcast
10:14 AM 41.0 °F 30.7 °F 33.8 °F 76% 30.07 in 10.0 mi NNW 25.3 mph 38.0 mph N/A   Overcast
10:34 AM 41.0 °F 30.2 °F 33.8 °F 76% 30.07 in 10.0 mi NNW 27.6 mph 36.8 mph N/A   Overcast
10:54 AM 42.8 °F 33.1 °F 33.8 °F 70% 30.08 in 10.0 mi North 25.3 mph 39.1 mph N/A   Overcast
11:14 AM 42.8 °F 32.1 °F 33.8 °F 70% 30.09 in 10.0 mi NNW 31.1 mph 40.3 mph N/A   Overcast
11:34 AM 42.8 °F 32.7 °F 33.8 °F 70% 30.10 in 10.0 mi North 27.6 mph 34.5 mph N/A   Overcast
11:54 AM 42.8 °F 32.7 °F 32.0 °F 66% 30.11 in 10.0 mi NNW 27.6 mph 39.1 mph N/A   Overcast
12:14 PM 42.8 °F 32.9 °F 33.8 °F 70% 30.12 in 10.0 mi NNW 26.5 mph 36.8 mph N/A   Overcast
12:34 PM 42.8 °F 33.5 °F 33.8 °F 70% 30.12 in 10.0 mi NNW 23.0 mph 33.4 mph N/A   Overcast
12:54 PM 44.6 °F 36.1 °F 32.0 °F 61% 30.13 in 10.0 mi NNW 21.9 mph 34.5 mph N/A   Overcast
1:14 PM 44.6 °F 37.2 °F 32.0 °F 61% 30.14 in 10.0 mi North 17.3 mph 35.7 mph N/A   Overcast
1:33 PM 44.6 °F - 32.0 °F 61% 30.13 in 10.0 mi North - - N/A   Overcast
1:54 PM 44.6 °F 36.6 °F 33.8 °F 66% 30.15 in 10.0 mi NNW 19.6 mph 35.7 mph N/A   Overcast
2:14 PM 44.6 °F 34.9 °F 30.2 °F 57% 30.15 in 10.0 mi North 28.8 mph 38.0 mph N/A   Overcast
2:34 PM 46.4 °F 39.2 °F 30.2 °F 53% 30.16 in 10.0 mi North 18.4 mph 32.2 mph N/A   Overcast
2:54 PM 46.4 °F 38.7 °F 32.0 °F 57% 30.16 in 10.0 mi NNW 20.7 mph 28.8 mph N/A   Overcast
3:14 PM 44.6 °F 36.6 °F 33.8 °F 66% 30.16 in 10.0 mi NNW 19.6 mph 28.8 mph N/A   Overcast
3:34 PM 44.6 °F 36.9 °F 33.8 °F 66% 30.17 in 10.0 mi NW 18.4 mph 28.8 mph N/A   Overcast
3:54 PM 46.4 °F 38.7 °F 33.8 °F 62% 30.17 in 10.0 mi NNW 20.7 mph 31.1 mph N/A   Overcast
4:14 PM 44.6 °F 37.4 °F 32.0 °F 61% 30.18 in 10.0 mi NNW 16.1 mph 28.8 mph N/A   Overcast
4:34 PM 44.6 °F 37.2 °F 33.8 °F 66% 30.18 in 10.0 mi NNW 17.3 mph 31.1 mph N/A   Overcast
4:54 PM 44.6 °F 35.7 °F 33.8 °F 66% 30.18 in 10.0 mi North 24.2 mph 32.2 mph N/A   Overcast
5:14 PM 46.4 °F - 33.8 °F 62% 30.18 in 10.0 mi North - - N/A   Overcast
5:34 PM 44.6 °F 35.9 °F 32.0 °F 61% 30.19 in 10.0 mi NNW 23.0 mph 31.1 mph N/A   Overcast
5:54 PM 44.6 °F 37.4 °F 32.0 °F 61% 30.19 in 10.0 mi North 16.1 mph 21.9 mph N/A   Overcast
6:14 PM 44.6 °F 36.4 °F 32.0 °F 61% 30.19 in 10.0 mi North 20.7 mph 27.6 mph N/A   Overcast
6:34 PM 44.6 °F 38.1 °F 32.0 °F 61% 30.20 in 10.0 mi North 13.8 mph 24.2 mph N/A   Overcast
6:54 PM 44.6 °F 37.8 °F 32.0 °F 61% 30.20 in 10.0 mi North 15.0 mph 23.0 mph N/A   Overcast
7:14 PM 44.6 °F 39.2 °F 33.8 °F 66% 30.21 in 10.0 mi NNW 10.4 mph 19.6 mph N/A   Overcast
7:34 PM 44.6 °F 37.4 °F 33.8 °F 66% 30.21 in 10.0 mi North 16.1 mph 24.2 mph N/A   Overcast
7:54 PM 42.8 °F 36.6 °F 33.8 °F 70% 30.21 in 10.0 mi NNW 11.5 mph 18.4 mph N/A   Overcast
8:14 PM 44.6 °F 37.4 °F 33.8 °F 66% 30.22 in 10.0 mi NNW 16.1 mph 20.7 mph N/A   Overcast
8:34 PM 42.8 °F 35.8 °F 32.0 °F 66% 30.22 in 10.0 mi North 13.8 mph 27.6 mph N/A   Overcast
8:54 PM 42.8 °F 35.4 °F 32.0 °F 66% 30.23 in 10.0 mi NNW 15.0 mph 20.7 mph N/A   Overcast
9:15 PM 42.8 °F 36.2 °F 32.0 °F 66% 30.23 in 10.0 mi NNW 12.7 mph 25.3 mph N/A   Overcast
9:34 PM 42.8 °F 36.6 °F 33.8 °F 70% 30.23 in 10.0 mi NNW 11.5 mph 19.6 mph N/A   Overcast
9:54 PM 42.8 °F 35.4 °F 33.8 °F 70% 30.24 in 10.0 mi NNW 15.0 mph 20.7 mph N/A   Overcast
10:15 PM 41.0 °F 34.7 °F 35.6 °F 81% 30.24 in 10.0 mi NNW 10.4 mph 17.3 mph N/A   Overcast
10:34 PM 42.8 °F 34.0 °F 33.8 °F 70% 30.24 in 10.0 mi North 20.7 mph 25.3 mph N/A   Overcast
10:54 PM 42.8 °F 35.4 °F 33.8 °F 70% 30.24 in 10.0 mi NNW 15.0 mph 20.7 mph N/A   Overcast
11:15 PM 42.8 °F 36.2 °F 33.8 °F 70% 30.23 in 10.0 mi NNW 12.7 mph 20.7 mph N/A   Overcast
11:34 PM 42.8 °F 37.0 °F 33.8 °F 70% 30.23 in 10.0 mi NW 10.4 mph - N/A   Overcast
11:54 PM - - - N/A% 30.43 in 10.0 mi North 15.0 mph - N/A   Overcast